Previsão horária em Jutroszew

Hoje, 19 Junho, Sábado

Tempo Temperatura Precipitação Vento Pressão Humidade
00:00 +20°C° 0 mm 3 m/s 743 mmHg 81%
01:00 +19°C° 0 mm 3 m/s 743 mmHg 83%
02:00 +19°C° 0 mm 3 m/s 743 mmHg 84%
03:00 +18°C° 0 mm 3 m/s 743 mmHg 85%
04:00 +18°C° 0 mm 3 m/s 743 mmHg 87%
05:00 +20°C° 0 mm 3 m/s 743 mmHg 80%
06:00 +21°C° 0 mm 3 m/s 743 mmHg 74%
07:00 +23°C° 0 mm 4 m/s 743 mmHg 68%
08:00 +25°C° 0 mm 4 m/s 743 mmHg 62%
09:00 +27°C° 0 mm 4 m/s 743 mmHg 57%
10:00 +28°C° 0 mm 4 m/s 743 mmHg 52%
11:00 +29°C° 0 mm 4 m/s 743 mmHg 49%
12:00 +30°C° 0 mm 4 m/s 742 mmHg 47%
13:00 +32°C° 0 mm 4 m/s 742 mmHg 45%
14:00 +31°C° 0 mm 3 m/s 742 mmHg 45%
15:00 +31°C° 0 mm 3 m/s 742 mmHg 46%
16:00 +31°C° 0 mm 3 m/s 741 mmHg 46%
17:00 +29°C° 0 mm 3 m/s 741 mmHg 54%
18:00 +28°C° 0 mm 3 m/s 741 mmHg 61%
19:00 +27°C° 0 mm 3 m/s 741 mmHg 69%
20:00 +25°C° 0 mm 3 m/s 741 mmHg 72%
21:00 +24°C° 0 mm 3 m/s 741 mmHg 75%
22:00 +22°C° 0 mm 3 m/s 742 mmHg 78%
23:00 +22°C° 0 mm 3 m/s 741 mmHg 79%

Amanhã, 20 Junho, Domingo

Tempo Temperatura Precipitação Vento Pressão Humidade
00:00 +21°C° 0 mm 3 m/s 741 mmHg 81%
01:00 +20°C° 0 mm 3 m/s 741 mmHg 82%
02:00 +20°C° 0 mm 3 m/s 741 mmHg 85%
03:00 +19°C° 0 mm 3 m/s 741 mmHg 88%
04:00 +18°C° 0 mm 3 m/s 741 mmHg 90%
05:00 +20°C° 0 mm 3 m/s 741 mmHg 84%
06:00 +21°C° 0 mm 4 m/s 741 mmHg 78%
07:00 +23°C° 0 mm 4 m/s 741 mmHg 72%
08:00 +25°C° 0 mm 4 m/s 741 mmHg 66%
09:00 +26°C° 0 mm 4 m/s 741 mmHg 59%
10:00 +27°C° 0 mm 4 m/s 741 mmHg 52%
11:00 +28°C° 0 mm 4 m/s 740 mmHg 50%
12:00 +29°C° 0 mm 4 m/s 740 mmHg 48%
13:00 +29°C° 0 mm 4 m/s 740 mmHg 46%
14:00 +29°C° 0 mm 4 m/s 739 mmHg 46%
15:00 +30°C° 0 mm 4 m/s 739 mmHg 46%
16:00 +30°C° 0 mm 4 m/s 739 mmHg 46%
17:00 +28°C° 0 mm 4 m/s 738 mmHg 54%
18:00 +27°C° 0 mm 4 m/s 738 mmHg 61%
19:00 +26°C° 0 mm 4 m/s 738 mmHg 69%
20:00 +24°C° 0 mm 3 m/s 738 mmHg 73%
21:00 +22°C° 0 mm 3 m/s 738 mmHg 77%
22:00 +21°C° 0 mm 3 m/s 738 mmHg 81%
23:00 +20°C° 0 mm 3 m/s 738 mmHg 84%

Depois de amanhã, 21 Junho, Segunda-feira

Tempo Temperatura Precipitação Vento Pressão Humidade
00:00 +20°C° 0 mm 3 m/s 738 mmHg 87%
01:00 +19°C° 0 mm 3 m/s 737 mmHg 90%
02:00 +19°C° 0 mm 3 m/s 737 mmHg 91%
03:00 +19°C° 0 mm 3 m/s 737 mmHg 93%
04:00 +18°C° 0 mm 3 m/s 737 mmHg 94%
05:00 +20°C° 0 mm 3 m/s 737 mmHg 87%
06:00 +21°C° 0 mm 4 m/s 737 mmHg 80%
07:00 +23°C° 0 mm 4 m/s 737 mmHg 74%
08:00 +25°C° 0 mm 4 m/s 737 mmHg 67%
09:00 +27°C° 0 mm 4 m/s 737 mmHg 61%
10:00 +28°C° 0 mm 4 m/s 737 mmHg 55%
11:00 +29°C° 0 mm 4 m/s 737 mmHg 52%
12:00 +30°C° 0 mm 3 m/s 736 mmHg 49%
13:00 +31°C° 0 mm 3 m/s 736 mmHg 46%
14:00 +31°C° 0 mm 3 m/s 736 mmHg 45%
15:00 +31°C° 0 mm 3 m/s 736 mmHg 44%
16:00 +31°C° 0 mm 3 m/s 736 mmHg 44%
17:00 +30°C° 0 mm 3 m/s 735 mmHg 53%
18:00 +28°C° 0 mm 4 m/s 735 mmHg 61%
19:00 +26°C° 0 mm 4 m/s 735 mmHg 70%
20:00 +25°C° 0.6 mm 4 m/s 736 mmHg 77%
21:00 +22°C° 0.6 mm 3 m/s 736 mmHg 84%
22:00 +20°C° 0.6 mm 3 m/s 736 mmHg 90%
23:00 +20°C° 0.1 mm 2 m/s 736 mmHg 91%

22 Junho, Terça-feira

Tempo Temperatura Precipitação Vento Pressão Humidade
00:00 +20°C° 0.1 mm 2 m/s 736 mmHg 91%
01:00 +20°C° 0.1 mm 1 m/s 736 mmHg 92%
02:00 +19°C° 0.3 mm 2 m/s 736 mmHg 92%
03:00 +19°C° 0.3 mm 2 m/s 737 mmHg 93%
04:00 +19°C° 0.3 mm 2 m/s 737 mmHg 94%
05:00 +20°C° 0.4 mm 2 m/s 737 mmHg 90%
06:00 +21°C° 0.4 mm 2 m/s 738 mmHg 87%
07:00 +21°C° 0.4 mm 2 m/s 738 mmHg 84%
08:00 +24°C° 0.1 mm 2 m/s 738 mmHg 78%
09:00 +25°C° 0.1 mm 2 m/s 739 mmHg 72%
10:00 +27°C° 0.1 mm 3 m/s 739 mmHg 66%
11:00 +27°C° 0 mm 3 m/s 739 mmHg 62%
12:00 +28°C° 0 mm 3 m/s 739 mmHg 59%
13:00 +29°C° 0 mm 3 m/s 739 mmHg 55%
14:00 +29°C° 0.1 mm 3 m/s 739 mmHg 56%
15:00 +29°C° 0.1 mm 3 m/s 739 mmHg 57%
16:00 +29°C° 0.1 mm 3 m/s 739 mmHg 59%
17:00 +28°C° 0 mm 3 m/s 740 mmHg 62%
18:00 +27°C° 0 mm 2 m/s 740 mmHg 66%
19:00 +26°C° 0 mm 2 m/s 740 mmHg 70%
20:00 +25°C° 0 mm 2 m/s 740 mmHg 73%
21:00 +24°C° 0 mm 2 m/s 740 mmHg 77%
22:00 +23°C° 0 mm 2 m/s 740 mmHg 80%
23:00 +21°C° 0 mm 2 m/s 740 mmHg 83%

23 Junho, Quarta-feira

Tempo Temperatura Precipitação Vento Pressão Humidade
00:00 +20°C° 0 mm 2 m/s 740 mmHg 87%
01:00 +20°C° 0 mm 2 m/s 740 mmHg 90%
02:00 +21°C° 0 mm 1 m/s 740 mmHg 90%
03:00 +20°C° 0 mm 1 m/s 740 mmHg 91%
04:00 +20°C° 0 mm 1 m/s 740 mmHg 92%
05:00 +22°C° 0 mm 1 m/s 740 mmHg 86%
06:00 +23°C° 0 mm 1 m/s 741 mmHg 80%
07:00 +25°C° 0 mm 1 m/s 741 mmHg 75%
08:00 +26°C° 0 mm 1 m/s 741 mmHg 69%
09:00 +28°C° 0 mm 1 m/s 741 mmHg 63%
10:00 +29°C° 0 mm 1 m/s 741 mmHg 56%
11:00 +30°C° 0 mm 1 m/s 741 mmHg 53%
12:00 +31°C° 0 mm 1 m/s 741 mmHg 49%
13:00 +32°C° 0 mm 1 m/s 741 mmHg 45%
14:00 +32°C° 0 mm 1 m/s 741 mmHg 44%
15:00 +32°C° 0 mm 1 m/s 741 mmHg 43%
16:00 +32°C° 0 mm 1 m/s 741 mmHg 42%
17:00 +31°C° 0 mm 1 m/s 741 mmHg 49%
18:00 +30°C° 0 mm 2 m/s 740 mmHg 55%
19:00 +29°C° 0 mm 2 m/s 740 mmHg 62%
20:00 +27°C° 0 mm 2 m/s 740 mmHg 65%
21:00 +26°C° 0 mm 2 m/s 740 mmHg 69%
22:00 +25°C° 0 mm 3 m/s 741 mmHg 73%
23:00 +24°C° 0 mm 2 m/s 740 mmHg 75%

24 Junho, Quinta-feira

Tempo Temperatura Precipitação Vento Pressão Humidade
00:00 +24°C° 0 mm 2 m/s 740 mmHg 77%
01:00 +24°C° 0 mm 2 m/s 740 mmHg 79%
02:00 +23°C° 0.6 mm 2 m/s 740 mmHg 83%
03:00 +21°C° 0.6 mm 2 m/s 740 mmHg 87%
04:00 +22°C° 0.6 mm 1 m/s 740 mmHg 91%
05:00 +21°C° 1 mm 2 m/s 740 mmHg 91%
06:00 +21°C° 1 mm 2 m/s 741 mmHg 91%
07:00 +23°C° 1 mm 2 m/s 741 mmHg 90%
08:00 +23°C° 0.1 mm 2 m/s 741 mmHg 86%
09:00 +24°C° 0.1 mm 2 m/s 741 mmHg 82%
10:00 +25°C° 0.1 mm 2 m/s 741 mmHg 77%
11:00 +26°C° 0 mm 3 m/s 741 mmHg 73%
12:00 +27°C° 0 mm 3 m/s 741 mmHg 69%
13:00 +28°C° 0 mm 3 m/s 741 mmHg 64%
14:00 +28°C° 0 mm 3 m/s 741 mmHg 64%
15:00 +28°C° 0 mm 3 m/s 741 mmHg 64%
16:00 +28°C° 0 mm 3 m/s 741 mmHg 63%
17:00 +27°C° 0 mm 4 m/s 741 mmHg 68%
18:00 +26°C° 0 mm 4 m/s 741 mmHg 73%
19:00 +25°C° 0 mm 4 m/s 740 mmHg 78%
20:00 +23°C° 0.1 mm 4 m/s 741 mmHg 82%
21:00 +22°C° 0.1 mm 3 m/s 741 mmHg 86%
22:00 +21°C° 0.1 mm 2 m/s 741 mmHg 91%
23:00 +21°C° 0 mm 2 m/s 741 mmHg 92%
Mostrar mais

Necessitamos do seu Consentimento

A Meteoprog e os seus Fornecedores de Serviços podem armazenar e aceder a dados pessoais como cookies, identificadores do dispositivo ou outras tecnologias semelhantes existentes no seu dispositivo e processar estes dados para personalizar conteúdos e anúncios, assim como funcionalidades nas redes sociais e análise de tráfego.

  • Armazenar e/ou aceder a informações no seu dispositivo

    Os cookies, identificadores do dispositivo ou outras informações podem ser armazenados ou acedidos no seu dispositivo, para os fins acima indicados.

  • Anúncios e conteúdos personalizados, medição de anúncios e conteúdos, dados sobre o público-alvo e desenvolvimento de produtos

    Os anúncios e os conteúdos podem ser personalizados com base num perfil. Podem ser adicionados dados adicionais para uma maior personalização dos anúncios e dos conteúdos. A eficácia dos anúncios e dos conteúdos pode ser medida. Podem ser obtidas informações sobre o público que visualizou os anúncios e os conteúdos. Estes dados podem ser usados para desenvolver ou melhorar sistemas, softwares ou a experiência do utilizador.

Ao clicar em "Eu concordo”, permitirá o uso de cookies, identificadores do dispositivo e web beacons mencionados ou outras tecnologias semelhantes. As configurações do navegador do seu dispositivo podem ser alteradas.

Para certos fins, podem ser invocados interesses legítimos ao invés de consentimento. Pode ler mais informação sobre este assunto na nossa Política de Privacidade e Cookies.